FW5278 Weather Reports


Display with metric or nautical units.
time (UTC)temp
F
wind
direction
speed
MPH
gust
MPH
rain 1hr
in
rain 24hr
in
rain mn
in
humidity
%
barometer
mb
20260504050553 77 297 1.0 3.0 0.00 0.00 0.00 42 1007.5
20260504045554 77 299 0.0 4.0 0.00 0.00 0.00 42 1007.6
20260504045053 77 313 1.0 4.0 0.00 0.00 0.00 42 1007.5
20260504044559 78 0 0.0 4.0 0.00 0.00 0.00 42 1007.6
20260504044053 78 297 1.0 4.0 0.00 0.00 0.00 42 1007.6
20260504043553 78 0 1.0 3.0 0.00 0.00 0.00 43 1007.4
20260504043058 78 0 1.0 3.0 0.00 0.00 0.00 43 1007.5
20260504042552 78 302 0.0 3.0 0.00 0.00 0.00 43 1007.4
20260504042058 79 302 0.0 4.0 0.00 0.00 0.00 43 1007.4
20260504041555 79 0 0.0 4.0 0.00 0.00 0.00 42 1007.3
20260504041055 79 315 0.0 2.0 0.00 0.00 0.00 42 1007.3
20260504040553 80 298 0.0 4.0 0.00 0.00 0.00 42 1007.3
20260504040105 80 312 0.0 6.0 0.00 0.00 0.00 41 1007.2
20260504035552 81 285 1.0 6.0 0.00 0.00 0.00 40 1007.1
20260504035053 81 309 2.0 6.0 0.00 0.00 0.00 40 1007.1
20260504034600 81 316 3.0 6.0 0.00 0.00 0.00 40 1007.0
20260504034052 81 309 1.0 5.0 0.00 0.00 0.00 40 1007.0
20260504033552 81 326 1.0 4.0 0.00 0.00 0.00 40 1006.9
20260504033127 81 287 1.0 4.0 0.00 0.00 0.00 39 1006.9
20260504032554 82 305 0.0 2.0 0.00 0.00 0.00 39 1006.8
20260504032051 82 315 0.0 3.0 0.00 0.00 0.00 39 1006.8
20260504031557 83 299 1.0 3.0 0.00 0.00 0.00 38 1006.7
20260504031053 84 0 1.0 3.0 0.00 0.00 0.00 37 1006.7
20260504030553 84 299 1.0 3.0 0.00 0.00 0.00 37 1006.6
20260504030056 85 309 1.0 4.0 0.00 0.00 0.00 36 1006.6
20260504025553 85 307 1.0 4.0 0.00 0.00 0.00 35 1006.6
20260504025053 86 304 2.0 4.0 0.00 0.00 0.00 34 1006.6
20260504024556 87 314 1.0 4.0 0.00 0.00 0.00 33 1006.5
20260504024052 88 311 1.0 6.0 0.00 0.00 0.00 32 1006.5
20260504023553 88 295 2.0 6.0 0.00 0.00 0.00 31 1006.4
20260504023102 88 286 1.0 4.0 0.00 0.00 0.00 31 1006.5
20260504022553 89 307 1.0 4.0 0.00 0.00 0.00 31 1006.5
20260504022049 89 281 1.0 4.0 0.00 0.00 0.00 31 1006.5
20260504021556 89 326 1.0 8.0 0.00 0.00 0.00 30 1006.5
20260504021049 89 263 2.0 8.0 0.00 0.00 0.00 31 1006.4
20260504020549 89 299 2.0 8.0 0.00 0.00 0.00 31 1006.5
20260504020100 89 314 1.0 4.0 0.00 0.00 0.00 31 1006.5
20260504015553 89 285 1.0 4.0 0.00 0.00 0.00 31 1006.5
20260504015054 88 297 1.0 8.0 0.00 0.00 0.00 32 1006.6
20260504014555 88 263 2.0 8.0 0.00 0.00 0.00 32 1006.5
20260504014053 88 309 2.0 8.0 0.00 0.00 0.00 31 1006.6
20260504013553 88 305 4.0 8.0 0.00 0.00 0.00 31 1006.7
20260504013107 89 285 2.0 8.0 0.00 0.00 0.00 31 1006.8
20260504012553 89 290 3.0 8.0 0.00 0.00 0.00 30 1006.8
20260504012053 89 307 2.0 6.0 0.00 0.00 0.00 30 1006.7
20260504011556 89 288 2.0 6.0 0.00 0.00 0.00 29 1006.7
20260504011052 90 191 2.0 6.0 0.00 0.00 0.00 29 1006.8
20260504010552 90 305 2.0 9.0 0.00 0.00 0.00 29 1006.9
20260504010111 91 288 3.0 9.0 0.00 0.00 0.00 28 1006.9
20260504005556 92 302 1.0 6.0 0.00 0.00 0.00 26 1006.9
20260504005053 92 290 2.0 9.0 0.00 0.00 0.00 27 1006.9
20260504004619 92 250 3.0 9.0 0.00 0.00 0.00 26 1007.1
20260504004053 92 297 2.0 6.0 0.00 0.00 0.00 26 1007.0
20260504003554 92 305 1.0 9.0 0.00 0.00 0.00 27 1007.1
20260504003054 92 179 1.0 9.0 0.00 0.00 0.00 27 1007.1
20260504002553 92 209 3.0 9.0 0.00 0.00 0.00 26 1007.0
20260504002053 92 323 1.0 6.0 0.00 0.00 0.00 27 1007.1
20260504001604 92 295 2.0 6.0 0.00 0.00 0.00 26 1007.1
20260504001054 92 301 2.0 6.0 0.00 0.00 0.00 27 1007.1
20260504000553 92 314 1.0 6.0 0.00 0.00 0.00 27 1007.1
20260504000055 92 278 2.0 5.0 0.00 0.00 0.00 26 1007.1
20260503235556 92 99 1.0 6.0 0.00 0.00 0.00 27 1007.2
20260503235053 92 305 3.0 6.0 0.00 0.00 0.00 27 1007.2
20260503234556 93 99 1.0 6.0 0.00 0.00 0.00 27 1007.3
20260503234053 92 280 2.0 6.0 0.00 0.00 0.00 27 1007.4
20260503233553 92 304 2.0 7.0 0.00 0.00 0.00 28 1007.3
20260503233054 92 313 2.0 7.0 0.00 0.00 0.00 28 1007.5
20260503232552 92 311 2.0 6.0 0.00 0.00 0.00 28 1007.6
20260503232052 93 282 2.0 8.0 0.00 0.00 0.00 28 1007.5
20260503231557 93 303 2.0 8.0 0.00 0.00 0.00 28 1007.6
20260503231053 93 297 1.0 5.0 0.00 0.00 0.00 28 1007.5
20260503230553 92 314 1.0 5.0 0.00 0.00 0.00 27 1007.7
20260503225553 92 325 1.0 6.0 0.00 0.00 0.00 29 1007.8
20260503225052 92 297 0.0 6.0 0.00 0.00 0.00 27 1007.9
20260503224554 92 328 2.0 6.0 0.00 0.00 0.00 26 1008.0
20260503224052 91 100 2.0 7.0 0.00 0.00 0.00 28 1008.0
20260503223552 91 271 3.0 7.0 0.00 0.00 0.00 27 1008.1
20260503223059 91 92 3.0 6.0 0.00 0.00 0.00 28 1008.1
20260503222553 91 260 1.0 7.0 0.00 0.00 0.00 26 1008.2
20260503222053 91 102 3.0 7.0 0.00 0.00 0.00 29 1008.3
20260503221555 92 88 2.0 5.0 0.00 0.00 0.00 29 1008.3
20260503221054 91 275 1.0 5.0 0.00 0.00 0.00 29 1008.4
20260503220552 91 79 2.0 5.0 0.00 0.00 0.00 28 1008.6
20260503220054 91 353 1.0 5.0 0.00 0.00 0.00 30 1008.7
20260503215551 91 79 2.0 5.0 0.00 0.00 0.00 30 1008.8
20260503215051 91 157 1.0 6.0 0.00 0.00 0.00 32 1008.8
20260503214554 90 131 2.0 6.0 0.00 0.00 0.00 31 1008.8
20260503214056 91 303 1.0 5.0 0.00 0.00 0.00 31 1008.9
20260503213551 90 300 1.0 5.0 0.00 0.00 0.00 31 1009.0
20260503213106 90 98 2.0 5.0 0.00 0.00 0.00 32 1009.1
20260503212555 90 263 1.0 5.0 0.00 0.00 0.00 31 1009.1
20260503212053 90 77 1.0 5.0 0.00 0.00 0.00 33 1009.2
20260503211553 90 274 1.0 5.0 0.00 0.00 0.00 34 1009.2
20260503211052 89 280 1.0 5.0 0.00 0.00 0.00 35 1009.3
20260503210555 89 302 1.0 6.0 0.00 0.00 0.00 36 1009.3
20260503210100 88 295 1.0 6.0 0.00 0.00 0.00 34 1009.4
20260503205552 88 135 1.0 5.0 0.00 0.00 0.00 37 1009.4
20260503205052 87 315 1.0 5.0 0.00 0.00 0.00 37 1009.5
20260503204555 87 319 2.0 5.0 0.00 0.00 0.00 38 1009.5
20260503204053 87 105 2.0 5.0 0.00 0.00 0.00 38 1009.6
20260503203554 87 281 2.0 6.0 0.00 0.00 0.00 38 1009.7
20260503203101 87 155 1.0 9.0 0.00 0.00 0.00 39 1009.8
20260503202552 86 260 1.0 9.0 0.00 0.00 0.00 39 1009.8
20260503202052 86 255 2.0 9.0 0.00 0.00 0.00 40 1009.9
20260503201558 86 175 1.0 5.0 0.00 0.00 0.00 41 1009.9
20260503201053 85 302 1.0 5.0 0.00 0.00 0.00 42 1010.1
20260503200552 85 289 1.0 6.0 0.00 0.00 0.00 43 1010.0
20260503200100 84 110 1.0 6.0 0.00 0.00 0.00 42 1010.1
20260503195551 84 300 2.0 6.0 0.00 0.00 0.00 42 1010.2
20260503195051 84 289 1.0 5.0 0.00 0.00 0.00 43 1010.3
20260503194555 83 170 1.0 5.0 0.00 0.00 0.00 45 1010.3
20260503194051 83 352 2.0 5.0 0.00 0.00 0.00 45 1010.4
20260503193550 83 302 2.0 5.0 0.00 0.00 0.00 45 1010.5
20260503193056 82 285 1.0 4.0 0.00 0.00 0.00 46 1010.7
20260503192552 82 85 1.0 4.0 0.00 0.00 0.00 45 1010.7
20260503192051 82 90 2.0 4.0 0.00 0.00 0.00 45 1010.8
20260503191620 81 210 0.0 3.0 0.00 0.00 0.00 48 1010.8
20260503191052 81 143 1.0 4.0 0.00 0.00 0.00 48 1010.8
20260503190550 80 257 1.0 4.0 0.00 0.00 0.00 49 1011.0
20260503190054 80 257 1.0 4.0 0.00 0.00 0.00 49 1011.0
20260503185556 79 95 1.0 4.0 0.00 0.00 0.00 49 1011.1
20260503185052 78 314 1.0 4.0 0.00 0.00 0.00 51 1011.1
20260503184559 78 97 1.0 5.0 0.00 0.00 0.00 51 1011.2
20260503184054 78 92 2.0 5.0 0.00 0.00 0.00 51 1011.3
20260503183552 78 287 1.0 3.0 0.00 0.00 0.00 52 1011.3
20260503183112 77 0 1.0 6.0 0.00 0.00 0.00 53 1011.5
20260503182549 77 200 1.0 6.0 0.00 0.00 0.00 53 1011.5
20260503182053 77 314 1.0 3.0 0.00 0.00 0.00 54 1011.5
20260503181555 76 243 1.0 4.0 0.00 0.00 0.00 55 1011.6
20260503181052 75 334 1.0 4.0 0.00 0.00 0.00 57 1011.6
20260503180555 74 106 1.0 6.0 0.00 0.00 0.00 57 1011.8
20260503180055 74 298 1.0 6.0 0.00 0.00 0.00 58 1011.7
20260503175551 73 318 2.0 4.0 0.00 0.00 0.00 59 1011.8
20260503175052 73 281 1.0 5.0 0.00 0.00 0.00 59 1011.8
20260503174553 73 92 1.0 5.0 0.00 0.00 0.00 58 1011.9
20260503174052 72 309 1.0 4.0 0.00 0.00 0.00 61 1011.9
20260503173552 72 93 1.0 4.0 0.00 0.00 0.00 61 1012.0
20260503173118 71 288 1.0 5.0 0.00 0.00 0.00 63 1012.0
20260503172552 71 164 0.0 5.0 0.00 0.00 0.00 65 1012.1
20260503172052 70 123 2.0 5.0 0.00 0.00 0.00 65 1012.1
20260503171554 70 310 1.0 4.0 0.00 0.00 0.00 65 1012.1
20260503171049 69 304 1.0 5.0 0.00 0.00 0.00 67 1012.1
20260503170553 69 115 1.0 5.0 0.00 0.00 0.00 66 1012.1
20260503150552 60 287 0.0 0.0 0.00 0.00 0.00 96 1012.5
20260503131051 51 0 0.0 0.0 0.00 0.00 0.00 94 1012.2
20260503130548 51 0 0.0 0.0 0.00 0.00 0.00 94 1012.2
20260503120114 53 0 0.0 0.0 0.00 0.00 0.00 94 1012.3
20260503110553 54 0 0.0 1.0 0.00 0.00 0.00 94 1012.4
20260503100104 54 0 0.0 0.0 0.00 0.00 0.00 92 1012.4
20260503081556 55 0 0.0 0.0 0.00 0.00 0.00 89 1012.8
20260503081053 56 0 0.0 0.0 0.00 0.00 0.00 89 1012.7
20260503080554 56 0 0.0 0.0 0.00 0.00 0.00 89 1012.8
20260503072555 57 0 0.0 0.0 0.00 0.00 0.00 87 1012.9